Ralph M Calhoun Memorial Airport

Jump to: basic info | weather | runways | comments

Related pages: nearby airports | nearby navaids | notams | map

Basic information (top)

Codes: TAL PATA
Location: lon 65.174400, lat -152.108994, elev 236 ft / 72 m msl
Status: small_airport
Scheduled airline service: no
Links: Wikipedia Mobile

Weather (top)

Current conditions (rec'd 2014/09/20 17:33Z):

PATA 201733Z 00000KT 6SM BR BKN006 OVC060 07/06 A2951

Airport forecast (rec'd 2014/09/20 12:42Z):

TAF PATA 201138Z 2012/2112 VRB03KT 6SM -SHRA BR SCT025 BKN035 OVC050 
     FM201500 VRB03KT 6SM -RA BR BKN015 OVC025 
     FM210300 26005KT P6SM VCSH SCT025 BKN035 OVC050

Runways (top)

07/25: 4,400 x 150 ft (1,341 x 46 m) — other (GRVL-P) — not lighted

Latest comments (top)

Memorial for what?: As I did not know him personally, I did ... [read]

More... (top)

See also NOTAMs and nearby airports and navaids, or visit the Ralph M Calhoun Memorial Airport page at the main OurAirports website..